EW1390 Weather Reports


time (UTC)temp
C
wind
direction
speed
KPH
gust
KPH
rain 1hr
cm
rain 24hr
cm
rain mn
cm
humidity
%
barometer
mb
20260903123027 9 219 0.0 0.0 0.00 0.00 0.00 85 1007.9
20260903121518 9 219 0.0 0.0 0.00 0.00 0.00 85 1007.8
20260903120016 9 219 0.0 0.0 0.00 0.00 0.00 85 1008.0
20260903114514 9 219 0.0 0.0 0.00 0.00 0.00 84 1008.0
20260903113014 9 219 0.0 0.0 0.00 0.00 0.00 84 1008.1
20260903111511 10 219 0.0 0.0 0.00 0.00 0.00 84 1008.2
20260903110009 10 219 0.0 0.0 0.00 0.00 0.00 83 1008.3
20260903104508 10 219 0.0 0.0 0.00 0.00 0.00 83 1008.3
20260903103006 10 219 0.0 0.0 0.00 0.00 0.00 82 1008.3
20260903101504 10 219 0.0 0.0 0.00 0.00 0.00 82 1008.4
20260903100004 10 219 0.0 0.0 0.00 0.00 0.00 82 1008.5
20260903094603 10 219 0.0 0.0 0.00 0.00 0.00 81 1008.5
20260903093126 10 219 0.0 0.0 0.00 0.00 0.00 81 1008.6
20260903091557 10 219 0.0 0.0 0.00 0.00 0.00 80 1008.6
20260903090054 11 219 0.0 0.0 0.00 0.00 0.00 80 1008.7
20260903084552 11 219 0.0 0.0 0.00 0.00 0.00 79 1008.7
20260903083056 11 219 0.0 0.0 0.00 0.00 0.00 79 1008.8
20260903081552 11 219 0.0 0.0 0.00 0.00 0.00 78 1008.9
20260903080046 12 219 0.0 0.0 0.00 0.00 0.00 78 1008.9
20260903074546 12 219 0.0 0.0 0.00 0.00 0.00 77 1008.8
20260903073043 12 219 0.0 0.0 0.00 0.00 0.00 77 1008.7
20260903071554 12 219 0.0 0.0 0.00 0.00 0.00 76 1008.6
20260903070056 12 219 0.0 0.0 0.00 0.00 0.00 75 1008.7
20260903064537 13 219 0.0 0.0 0.00 0.00 0.00 74 1008.7
20260903063040 13 219 0.0 0.0 0.00 0.00 0.00 73 1008.7
20260903061537 13 219 0.0 0.0 0.00 0.00 0.00 73 1008.8
20260903060039 13 219 0.0 0.0 0.00 0.00 0.00 72 1008.7
20260903054543 14 219 0.0 1.6 0.00 0.00 0.00 71 1008.7
20260903053037 14 219 0.0 0.0 0.00 0.00 0.00 70 1008.9
20260903051534 15 219 0.0 3.2 0.00 0.00 0.00 70 1008.8
20260903050040 15 219 0.0 3.2 0.00 0.00 0.00 69 1008.9
20260903044534 15 219 0.0 3.2 0.00 0.00 0.00 68 1008.9
20260903043033 15 219 0.0 1.6 0.00 0.00 0.00 66 1008.8
20260903041534 16 219 0.0 1.6 0.00 0.00 0.00 65 1008.7
20260903040036 16 219 0.0 1.6 0.00 0.00 0.00 64 1008.7
20260903034532 17 219 0.0 1.6 0.00 0.00 0.00 61 1008.6
20260903033032 17 219 0.0 1.6 0.00 0.00 0.00 60 1008.4
20260903031534 18 219 0.0 1.6 0.00 0.00 0.00 58 1008.3
20260903030031 18 219 0.0 1.6 0.00 0.00 0.00 55 1008.2
20260903024530 20 219 0.0 1.6 0.00 0.00 0.00 53 1008.1
20260903023037 21 219 0.0 1.6 0.00 0.00 0.00 50 1008.1
20260903021528 21 219 0.0 4.8 0.00 0.00 0.00 48 1008.3
20260903020026 22 219 0.0 4.8 0.00 0.00 0.00 45 1008.3
20260903014525 22 234 0.0 6.4 0.00 0.00 0.00 41 1008.3
20260903013023 23 167 1.6 6.4 0.00 0.00 0.00 40 1008.3
20260903011524 23 246 0.0 4.8 0.00 0.00 0.00 39 1008.2
20260903010021 23 84 1.6 8.0 0.00 0.00 0.00 38 1008.4
20260903004525 25 238 1.6 9.7 0.00 0.00 0.00 35 1008.5
20260903003020 25 241 1.6 8.0 0.00 0.00 0.00 35 1008.5
20260903001522 25 261 0.0 8.0 0.00 0.00 0.00 34 1008.6
20260903000035 25 248 3.2 11.3 0.00 0.00 0.00 33 1008.6
20260902234515 25 82 1.6 12.9 0.00 0.00 0.00 34 1008.7
20260902233014 25 217 1.6 9.7 0.00 0.00 0.00 33 1008.8
20260902231518 25 17 0.0 6.4 0.00 0.00 0.00 32 1008.8
20260902230010 25 150 1.6 24.1 0.00 0.00 0.00 33 1008.9
20260902224510 25 223 3.2 12.9 0.00 0.00 0.00 35 1009.2
20260902223010 24 150 1.6 9.7 0.00 0.00 0.00 35 1009.2
20260902221507 24 248 4.8 14.5 0.00 0.00 0.00 34 1009.3
20260902220008 25 260 3.2 16.1 0.00 0.00 0.00 34 1009.4
20260902214506 25 59 1.6 9.7 0.00 0.00 0.00 35 1009.6
20260902213003 24 226 1.6 12.9 0.00 0.00 0.00 35 1009.8
20260902211502 24 234 1.6 9.7 0.00 0.00 0.00 36 1009.8
20260902210059 24 229 0.0 6.4 0.00 0.00 0.00 36 1009.9
20260902204606 23 229 6.4 16.1 0.00 0.00 0.00 36 1009.9
20260902203056 23 229 3.2 12.9 0.00 0.00 0.00 37 1010.1
20260902201616 23 117 3.2 22.5 0.00 0.00 0.00 38 1010.2
20260902200054 23 132 3.2 12.9 0.00 0.00 0.00 40 1010.3
20260902194553 23 85 3.2 16.1 0.00 0.00 0.00 40 1010.3
20260902193050 23 117 1.6 12.9 0.00 0.00 0.00 41 1010.3
20260902191547 22 188 1.6 12.9 0.00 0.00 0.00 41 1010.5
20260902190046 22 208 3.2 11.3 0.00 0.00 0.00 42 1010.6
20260902184545 22 239 1.6 12.9 0.00 0.00 0.00 42 1010.7
20260902183042 21 130 1.6 11.3 0.00 0.00 0.00 45 1010.8
20260902181540 21 156 0.0 8.0 0.00 0.00 0.00 46 1010.9
20260902180036 21 138 1.6 9.7 0.00 0.00 0.00 47 1010.8
20260902174544 20 54 0.0 6.4 0.00 0.00 0.00 49 1010.7
20260902173029 20 200 0.0 4.8 0.00 0.00 0.00 50 1010.6
20260902171526 19 153 0.0 4.8 0.00 0.00 0.00 52 1010.6
20260902170031 18 207 0.0 4.8 0.00 0.00 0.00 55 1010.7
20260902164526 17 246 0.0 4.8 0.00 0.00 0.00 60 1010.7
20260902163012 16 328 0.0 4.8 0.00 0.00 0.00 67 1010.7
20260902161521 15 331 0.0 0.0 0.00 0.00 0.00 75 1010.5
20260902160007 13 331 0.0 0.0 0.00 0.00 0.00 82 1010.5
20260902154605 12 331 0.0 0.0 0.00 0.00 0.00 83 1010.5
20260902153058 12 331 0.0 0.0 0.00 0.00 0.00 84 1010.4
20260902151657 11 331 0.0 0.0 0.00 0.00 0.00 85 1010.6
20260902150056 10 331 0.0 0.0 0.00 0.00 0.00 86 1010.7
20260902144559 10 331 0.0 0.0 0.00 0.00 0.00 87 1010.6
20260902143052 8 331 0.0 0.0 0.00 0.00 0.00 87 1010.4
20260902141550 8 331 0.0 0.0 0.00 0.00 0.00 86 1010.0
20260902140049 8 331 0.0 0.0 0.00 0.00 0.00 86 1010.0
20260902134548 8 331 0.0 0.0 0.00 0.00 0.00 86 1010.0
20260902133055 8 331 0.0 0.0 0.00 0.00 0.00 85 1009.6
20260902131556 8 331 0.0 0.0 0.00 0.00 0.00 85 1009.6
20260902130044 8 331 0.0 0.0 0.00 0.00 0.00 85 1009.5
20260902124544 8 331 0.0 0.0 0.00 0.00 0.00 85 1009.3